Find Starlink 36310

NORAD ID: 68244 Int'l Des: 2026-054 Owner: SPXS Country: US Constellation: starlink operational
LEOCIRCULAR

实时位置

正在加载3D地球...

关于 Starlink 36310

正在加载描述...

即将过境

Passes for default location (London). Set your location on the main map for personalized predictions.

高度历史

Loading altitude history...

两行轨道根数

1 68244U 26054N 26122.07534417 .00037705 00000-0 87305-3 0 9993
2 68244 53.1608 48.3349 0001112 106.1983 253.9145 15.42111674 7179
Epoch: May 2, 2026 • Age: 6 hours

当前状态

高度 440.1 km
速度 7.65 km/s
星下点 17.63°N, 78.65°E
发射日期 Mar 17, 2026
运行时间 0.1 years
类型 internet

技术详情

分类 Payload
质量 575.00 kg
干质量 530.00 kg
总质量 575.00 kg
长度 0.30 m
直径 4.10 m
跨度 29.00 m
形状 Box + pan
制造商 SPXS
平台类型 Starlink V2MO
阶段状态 In Orbit
所有者/国家 SPXS/US

Most Searched